Wind_Speed
76 77 77 76 77 79 81 78 70 65 61 60 60 61 62 61 56 58 54 59 59 65 65 68 68 68 70 68 65 65 62 62 61 62 60 60 58 56 55 53 51 49 48 47 47
75 77 79 81 80 72 69 67 65 63 62 61 60 61 61 62 59 55 66 57 60 61 62 66 69 69 68 70 64 66 65 65 65 61 61 63 61 60 58 56 54 53 53 51 50
50 51 52 55 58 60 63 64 64 63 63 61 61 59 63 63 63 59 57 65 61 60 63 61 67 69 70 70 64 66 67 70 66 66 65 65 64 64 62 59 58 57 57 54 55
49 51 51 53 55 57 57 58 59 59 59 60 63 61 63 66 66 59 61 61 65 63 62 66 66 67 69 67 69 63 68 70 68 69 70 67 66 66 65 62 62 60 58 61 60
52 55 59 62 63 63 63 64 65 66 67 68 68 67 67 65 66 68 67 67 64 67 64 62 65 66 67 70 68 68 66 69 67 71 72 68 67 66 67 66 66 64 64 63 65
57 60 63 64 65 68 69 72 74 75 75 75 74 73 71 70 80 76 74 71 68 66 68 66 63 63 65 66 64 66 64 66 67 71 72 71 68 69 69 68 68 68 67 68 69
55 57 59 60 61 63 65 69 74 78 81 82 81 80 77 79 85 80 75 75 72 69 69 66 66 64 63 66 65 64 60 62 69 69 69 70 69 72 68 72 70 69 71 69 70
50 54 57 58 60 62 64 68 74 77 79 80 81 81 80 86 86 85 85 82 78 75 74 72 68 63 62 62 65 67 64 59 61 64 68 68 69 68 69 71 71 73 71 70 71
43 46 49 52 54 57 61 67 72 74 75 76 76 77 82 86 88 89 86 87 84 79 77 76 72 68 64 62 63 67 67 65 60 60 62 65 68 65 65 67 67 52 54 67 72
39 43 45 47 50 54 60 66 69 71 72 72 72 72 74 79 85 87 88 87 88 85 80 77 75 71 65 62 60 63 66 67 64 61 63 60 58 47 51 59 68 65 66 56 47
44 44 46 48 51 57 56 54 55 54 58 59 61 63 71 80 83 87 90 89 88 87 83 79 76 70 67 66 66 67 66 65 66 61 59 59 57 59 51 47 62 66 69 69 70
45 47 48 49 53 57 54 49 41 39 38 43 48 54 59 68 83 86 87 90 89 84 84 85 77 74 73 73 72 70 66 66 65 60 61 58 57 59 65 63 58 65 66 72 77
47 51 52 50 56 58 54 46 35 30 29 31 35 40 49 58 69 84 87 89 91 89 85 84 79 79 78 74 71 71 66 68 66 63 63 57 58 60 62 56 56 55 62 65 72
46 51 53 51 57 57 53 43 38 29 22 19 22 29 38 45 55 69 84 89 87 88 88 84 78 79 77 72 76 76 73 70 64 65 65 62 62 60 57 57 57 63 66 68 67
44 50 53 50 57 57 51 42 38 27 19 11 12 19 28 38 45 56 74 86 88 87 88 83 82 80 79 74 76 76 74 74 70 66 65 63 64 69 62 67 58 65 66 69 72
42 46 52 49 55 55 49 41 37 25 18 11 3 9 19 29 38 48 58 73 86 88 86 82 80 81 79 76 75 75 79 77 72 68 65 70 65 66 64 72 75 78 77 77 79
39 42 48 47 52 52 46 39 32 21 15 11 7 2 10 18 29 40 49 60 74 86 87 82 81 80 79 77 73 71 77 78 76 73 71 70 68 64 69 72 73 77 80 83 84
35 39 46 43 48 47 42 36 28 16 12 11 12 10 6 13 20 31 40 50 61 71 82 86 84 80 77 75 72 69 69 74 74 74 71 70 71 69 71 72 71 73 75 78 82
31 36 43 42 44 43 39 32 23 13 8 10 15 14 10 12 16 21 29 37 47 58 70 81 84 83 78 76 74 71 69 70 70 71 71 71 70 69 71 73 73 74 75 78 80
31 32 38 39 40 39 33 28 19 11 5 10 16 15 12 12 13 18 23 30 37 45 55 65 75 80 81 77 73 72 72 73 71 71 72 73 71 67 72 75 75 77 78 80 82
31 30 34 36 36 36 29 24 17 9 4 8 16 13 10 12 13 15 20 22 27 35 42 50 60 70 77 78 76 75 75 74 73 71 70 71 71 69 70 75 77 79 81 83 85
32 30 29 32 32 32 23 19 13 7 4 6 13 10 14 16 13 10 15 21 25 28 34 40 45 51 58 64 66 68 67 68 66 63 66 68 70 69 70 74 77 80 84 86 89
33 30 27 29 28 28 19 16 10 4 1 3 10 15 13 19 12 18 20 19 21 25 29 32 35 37 38 41 46 50 52 53 55 58 62 64 66 69 72 76 78 81 85 89 92
35 32 28 27 27 23 17 11 9 5 4 6 11 18 19 21 20 15 14 20 24 24 22 22 24 26 29 33 34 38 42 46 50 54 57 62 64 70 72 78 80 83 87 90 94
36 35 30 26 25 20 16 7 6 6 6 8 11 12 17 13 14 19 14 14 18 21 21 23 24 26 28 29 30 34 37 41 45 48 51 57 60 64 66 71 76 80 84 87 89
36 37 32 27 27 22 16 5 1 4 7 11 14 12 13 14 16 16 14 14 17 19 21 23 23 24 26 28 31 34 37 39 42 46 49 53 57 61 65 68 72 75 80 85 88
39 39 37 34 31 26 19 11 9 4 7 11 14 16 14 14 14 17 16 14 15 15 18 20 23 24 26 27 30 34 37 40 42 45 48 52 56 61 64 68 73 76 81 84 90
Wind_Direction
261 264 262 263 265 268 269 269 265 261 256 255 253 248 246 243 240 233 239 238 235 234 233 232 232 231 232 232 234 238 232 235 238 241 237 243 242 243 245 247 248 250 253 257 260
268 267 265 266 268 266 264 263 261 258 255 253 250 248 242 240 236 232 235 236 236 234 234 233 232 232 232 233 235 234 233 236 239 241 241 244 243 245 245 247 250 252 253 254 259
268 270 268 267 265 265 263 260 258 255 253 250 246 245 243 236 234 238 235 235 236 234 232 233 233 231 231 234 234 233 235 236 238 240 243 243 244 247 247 249 250 254 257 257 259
269 268 268 268 267 266 264 259 255 253 252 249 244 240 240 232 233 235 237 237 234 235 235 233 232 232 231 234 237 234 234 238 240 241 242 244 245 247 249 249 252 254 260 260 262
270 270 268 268 267 266 263 260 258 256 254 251 247 243 237 233 234 233 235 236 234 233 233 232 233 232 233 235 236 239 237 237 239 241 244 245 246 248 250 251 254 257 257 263 263
271 270 271 270 269 267 264 263 262 260 257 252 248 244 241 235 236 236 235 235 234 232 233 232 232 232 233 233 235 238 242 238 238 241 243 246 248 249 251 253 255 257 260 263 265
275 274 274 273 272 271 270 267 264 261 258 254 250 245 241 237 237 235 232 237 236 231 232 232 232 232 233 234 233 235 237 237 241 241 242 243 246 249 252 254 255 258 261 263 265
284 282 281 280 278 277 275 272 269 264 261 257 253 249 243 239 236 236 232 235 235 231 229 231 231 231 234 233 234 235 236 237 240 243 246 245 246 249 252 256 259 260 261 265 268
295 291 289 286 283 282 281 278 274 272 268 263 257 251 244 240 235 233 232 231 232 231 230 230 229 229 230 232 233 233 236 235 238 243 245 248 250 252 256 255 253 256 268 272 270
308 308 303 295 294 294 291 286 282 278 274 268 260 251 244 240 237 235 232 231 231 230 230 230 231 230 229 234 235 237 234 236 237 241 247 248 250 248 263 263 255 259 257 249 259
319 315 312 305 305 307 301 295 288 278 273 267 260 253 241 235 231 230 228 230 230 229 229 230 230 231 230 233 235 236 236 237 238 239 244 248 250 244 249 262 258 256 255 256 260
319 323 321 317 318 320 314 311 298 286 275 264 256 248 241 232 228 228 227 226 227 228 228 229 232 231 228 230 233 236 238 238 238 238 240 243 244 243 244 253 266 268 262 263 262
321 322 325 325 327 331 323 319 318 309 293 271 254 240 235 232 226 224 223 223 224 225 226 228 228 230 229 231 233 236 237 239 240 240 240 241 242 247 250 252 259 261 264 270 273
320 323 327 329 332 335 331 331 334 328 310 280 255 239 230 229 224 220 221 221 221 223 225 225 227 229 230 233 235 234 233 237 239 243 244 242 243 245 251 246 263 262 266 267 272
319 325 327 332 335 338 335 339 340 340 330 303 254 233 226 222 218 219 216 216 219 219 221 223 225 227 230 233 235 235 234 236 239 243 246 248 246 248 244 244 250 257 259 264 268
318 324 327 332 336 340 339 344 344 343 350 349 348 229 216 216 215 212 214 216 214 217 219 220 224 226 229 232 234 233 233 235 239 242 247 250 250 251 252 250 249 256 261 265 267
316 323 326 331 336 341 341 346 343 351 359 21 45 106 192 200 208 209 208 210 214 215 218 220 222 226 228 232 233 233 234 236 239 244 245 251 256 256 255 255 256 259 261 264 268
315 323 324 328 335 342 342 346 340 353 22 51 69 77 131 173 197 201 204 208 210 213 217 218 220 225 227 230 231 233 235 237 241 245 248 252 256 257 258 259 260 262 265 268 270
308 319 322 323 333 342 343 344 341 350 51 78 87 88 107 148 167 186 196 202 209 211 212 216 220 223 225 228 230 233 236 239 241 247 252 254 258 260 261 261 263 265 267 269 272
297 314 319 318 328 339 343 341 343 1 41 91 93 82 101 125 149 168 183 196 201 208 213 216 219 222 226 230 232 236 239 244 246 252 256 259 258 258 260 262 264 267 270 273 276
286 300 311 312 321 333 344 338 334 5 77 109 119 156 116 122 138 165 172 184 195 202 207 213 219 223 227 230 233 238 242 247 252 254 256 257 259 259 259 261 265 269 272 275 277
275 286 299 302 312 324 340 335 333 331 11 173 154 141 130 141 134 149 177 181 193 201 205 209 215 221 227 231 236 240 244 248 249 250 252 255 260 262 261 263 266 269 272 276 278
265 272 283 292 299 315 327 330 328 310 315 138 172 161 151 149 164 179 177 199 209 208 213 214 219 224 227 229 231 233 238 244 248 251 255 259 261 264 266 267 269 271 274 276 279
259 260 268 281 285 302 312 328 307 279 186 177 175 178 175 168 170 199 199 207 212 214 216 210 212 214 218 224 229 235 240 246 251 255 259 261 263 265 268 271 274 275 277 279 280
254 249 254 269 269 282 294 306 310 270 214 179 163 174 190 195 198 216 211 203 200 204 203 204 208 212 220 227 232 238 245 250 255 260 264 267 270 270 273 277 279 281 283 284 285
255 242 244 253 255 265 267 255 281 253 200 171 159 158 165 183 179 169 170 181 196 200 209 213 216 221 227 233 240 246 250 257 262 267 270 275 279 280 280 280 282 282 283 285 288
256 239 235 239 246 244 248 233 186 190 185 171 166 160 159 160 170 172 171 180 187 195 211 220 228 233 239 244 251 257 260 266 270 275 277 278 279 281 283 284 285 287 288 290 290
Height
10766 10767 10765 10764 10764 10763 10764 10764 10765 10767 10768 10771 10773 10776 10779 10783 10788 10795 10800 10798 10807 10811 10818 10825 10831 10840 10848 10854 10858 10864 10868 10870 10874 10877 10885 10884 10890 10892 10895 10897 10900 10902 10904 10905 10906
10754 10753 10752 10751 10751 10749 10749 10749 10750 10752 10754 10757 10759 10761 10765 10770 10776 10783 10780 10791 10795 10801 10807 10813 10821 10829 10837 10842 10848 10855 10858 10860 10862 10871 10877 10875 10882 10883 10887 10889 10892 10894 10896 10898 10898
10742 10741 10739 10738 10737 10735 10735 10735 10736 10737 10739 10741 10745 10748 10751 10757 10763 10767 10774 10777 10783 10790 10795 10802 10809 10817 10824 10830 10838 10844 10849 10845 10856 10861 10863 10868 10873 10873 10878 10881 10883 10886 10886 10890 10890
10732 10730 10728 10726 10724 10723 10722 10722 10723 10724 10725 10727 10729 10733 10737 10743 10750 10761 10760 10763 10772 10778 10784 10791 10798 10806 10813 10821 10826 10833 10838 10839 10848 10849 10852 10858 10864 10865 10868 10875 10874 10876 10878 10878 10881
10719 10717 10714 10712 10710 10709 10707 10706 10706 10707 10708 10710 10713 10718 10723 10733 10739 10741 10743 10749 10757 10764 10772 10778 10785 10793 10801 10808 10815 10822 10826 10832 10840 10838 10841 10848 10853 10857 10858 10864 10865 10866 10870 10867 10870
10707 10703 10700 10697 10694 10692 10691 10690 10688 10687 10688 10689 10693 10699 10707 10722 10709 10723 10730 10734 10744 10753 10758 10767 10774 10781 10788 10797 10804 10812 10816 10823 10826 10827 10833 10837 10844 10845 10849 10854 10856 10857 10859 10859 10859
10695 10690 10687 10683 10680 10677 10674 10670 10666 10663 10663 10664 10668 10676 10689 10694 10690 10704 10719 10722 10731 10740 10747 10754 10761 10769 10778 10784 10794 10800 10802 10810 10811 10817 10823 10827 10833 10832 10844 10841 10846 10847 10849 10849 10849
10682 10677 10672 10669 10665 10660 10654 10649 10642 10638 10637 10638 10642 10651 10667 10663 10675 10687 10697 10703 10713 10723 10731 10739 10747 10758 10766 10774 10782 10788 10793 10799 10802 10807 10812 10818 10822 10827 10831 10833 10837 10836 10840 10838 10839
10671 10664 10660 10656 10650 10644 10638 10628 10619 10613 10610 10610 10614 10624 10634 10638 10650 10658 10677 10687 10693 10706 10717 10725 10733 10743 10753 10763 10769 10777 10784 10787 10792 10796 10801 10807 10812 10816 10819 10820 10823 10823 10827 10827 10829
10660 10654 10649 10643 10636 10629 10620 10606 10595 10586 10580 10580 10585 10595 10606 10617 10629 10644 10657 10668 10677 10689 10701 10713 10724 10733 10744 10753 10765 10766 10773 10776 10782 10790 10793 10797 10801 10806 10808 10809 10812 10812 10813 10815 10812
10651 10644 10637 10630 10622 10612 10599 10585 10572 10563 10555 10554 10556 10563 10574 10588 10601 10616 10632 10648 10659 10674 10689 10701 10710 10727 10738 10741 10747 10751 10760 10767 10774 10782 10782 10789 10794 10793 10796 10795 10797 10800 10802 10801 10803
10643 10635 10626 10618 10609 10595 10580 10568 10554 10545 10538 10535 10537 10541 10549 10563 10579 10595 10613 10628 10643 10664 10675 10684 10703 10714 10720 10725 10732 10739 10750 10756 10762 10768 10771 10780 10783 10784 10783 10786 10787 10788 10788 10783 10789
10635 10627 10617 10607 10597 10584 10569 10557 10544 10533 10527 10524 10524 10527 10535 10545 10559 10578 10594 10610 10627 10643 10659 10673 10690 10696 10706 10715 10724 10731 10743 10744 10752 10759 10760 10768 10774 10775 10776 10779 10779 10777 10772 10772 10772
10628 10619 10610 10600 10588 10576 10562 10548 10537 10528 10521 10517 10517 10519 10525 10534 10547 10561 10580 10596 10615 10632 10646 10659 10677 10686 10697 10710 10711 10719 10726 10734 10744 10744 10750 10760 10763 10761 10767 10767 10769 10764 10763 10762 10762
10621 10614 10603 10595 10583 10571 10559 10547 10534 10527 10520 10516 10514 10516 10521 10527 10535 10550 10559 10578 10601 10616 10630 10651 10661 10674 10685 10696 10701 10708 10722 10723 10729 10736 10741 10747 10750 10746 10760 10757 10754 10753 10753 10751 10749
10615 10609 10599 10591 10581 10569 10558 10546 10537 10529 10521 10517 10515 10516 10520 10526 10532 10541 10555 10570 10586 10605 10621 10639 10653 10661 10675 10683 10688 10699 10704 10711 10719 10725 10733 10728 10738 10739 10747 10741 10746 10744 10743 10741 10738
10610 10605 10597 10588 10580 10568 10558 10549 10541 10532 10526 10522 10520 10520 10522 10527 10532 10540 10550 10561 10578 10593 10614 10630 10641 10652 10663 10671 10681 10688 10696 10701 10708 10714 10718 10722 10725 10735 10730 10729 10733 10733 10731 10728 10724
10605 10601 10595 10587 10579 10570 10560 10551 10545 10537 10531 10528 10527 10527 10528 10530 10536 10541 10550 10561 10572 10588 10606 10617 10631 10643 10654 10663 10671 10678 10687 10693 10701 10703 10710 10714 10713 10718 10717 10718 10721 10721 10718 10714 10709
10600 10597 10593 10586 10579 10571 10562 10555 10549 10541 10538 10535 10533 10534 10536 10538 10542 10547 10555 10564 10574 10586 10596 10607 10624 10633 10645 10651 10661 10670 10678 10683 10690 10692 10697 10700 10704 10707 10706 10705 10706 10705 10702 10699 10695
10596 10593 10592 10585 10579 10572 10564 10558 10552 10546 10543 10541 10540 10541 10544 10546 10550 10554 10559 10566 10574 10584 10594 10607 10617 10628 10636 10646 10656 10663 10669 10673 10680 10684 10688 10685 10692 10700 10692 10690 10693 10690 10688 10685 10681
10591 10589 10589 10584 10579 10573 10567 10561 10556 10552 10549 10549 10548 10549 10551 10553 10556 10560 10565 10571 10579 10585 10592 10602 10611 10621 10630 10639 10648 10655 10660 10666 10670 10675 10676 10674 10680 10684 10684 10679 10680 10677 10673 10669 10664
10584 10584 10586 10582 10579 10574 10569 10565 10560 10555 10553 10554 10554 10555 10555 10558 10563 10566 10570 10575 10580 10587 10594 10601 10608 10617 10624 10635 10644 10650 10653 10658 10661 10667 10663 10667 10671 10671 10673 10669 10668 10663 10658 10654 10648
10576 10578 10579 10579 10578 10575 10569 10566 10563 10560 10558 10558 10558 10559 10560 10563 10566 10570 10575 10579 10584 10589 10595 10602 10609 10615 10624 10632 10637 10642 10647 10651 10654 10657 10656 10659 10661 10660 10659 10654 10653 10651 10645 10638 10630
10568 10572 10574 10574 10575 10574 10570 10566 10565 10562 10560 10560 10561 10564 10564 10566 10569 10573 10576 10581 10586 10591 10597 10603 10609 10616 10620 10625 10632 10637 10641 10645 10647 10648 10649 10648 10651 10649 10647 10640 10639 10635 10628 10622 10612
10558 10563 10568 10570 10571 10572 10570 10565 10564 10563 10562 10562 10563 10565 10566 10569 10571 10574 10577 10581 10585 10591 10596 10602 10607 10612 10618 10623 10627 10631 10634 10637 10639 10640 10641 10639 10638 10638 10639 10628 10621 10615 10609 10603 10597
10549 10555 10561 10563 10567 10569 10567 10565 10563 10564 10563 10563 10564 10566 10567 10569 10572 10574 10578 10581 10585 10590 10595 10600 10605 10610 10615 10619 10623 10626 10628 10631 10632 10632 10632 10630 10627 10622 10617 10616 10611 10603 10593 10583 10577
10540 10547 10551 10554 10560 10561 10563 10564 10562 10565 10566 10565 10566 10567 10569 10570 10573 10575 10578 10583 10586 10590 10595 10599 10604 10608 10611 10616 10618 10620 10623 10624 10623 10623 10622 10619 10615 10608 10604 10597 10590 10584 10573 10565 10552